Time_in_sec,gx,gy,gz
1326899528.36866999,-0.01402350,-0.01421853,-0.99980057
1326899528.42053127,-0.01321996,-0.01386344,-0.99981650
1326899528.46900702,-0.01337620,-0.01370521,-0.99981661
1326899528.51753759,-0.01332840,-0.01362499,-0.99981834
1326899528.57254267,-0.01364720,-0.01346944,-0.99981615
1326899528.61656237,-0.01396059,-0.01343058,-0.99981234
1326899528.66853237,-0.01338501,-0.01316461,-0.99982375
1326899528.71757126,-0.01318478,-0.01288933,-0.99983000
1326899528.76860857,-0.01345084,-0.01280341,-0.99982756
1326899528.81663108,-0.01349606,-0.01266071,-0.99982877
1326899528.86854434,-0.01335848,-0.01270644,-0.99983003
1326899528.91656208,-0.01331969,-0.01293360,-0.99982764
1326899528.96950936,-0.01337805,-0.01281899,-0.99982834
1326899529.01666999,-0.01344527,-0.01276571,-0.99982812
1326899529.06954074,-0.01340836,-0.01281602,-0.99982797
1326899529.11751866,-0.01335616,-0.01262707,-0.99983107
1326899529.16859078,-0.01267193,-0.01282235,-0.99983749
1326899529.22056150,-0.01281157,-0.01268955,-0.99983741
1326899529.26853251,-0.01280914,-0.01269677,-0.99983735
1326899529.31756878,-0.01275741,-0.01272747,-0.99983762
1326899529.36948729,-0.01287221,-0.01277706,-0.99983551
1326899529.41753531,-0.01251058,-0.01288530,-0.99983871
1326899529.46868134,-0.01272357,-0.01277885,-0.99983739
1326899529.51765490,-0.01296149,-0.01260353,-0.99983656
1326899529.56893802,-0.01307931,-0.01257357,-0.99983540
1326899529.61766553,-0.01293021,-0.01250014,-0.99983827
1326899529.66968298,-0.01275499,-0.01228117,-0.99984323
1326899529.71663761,-0.01267379,-0.01212496,-0.99984617
1326899529.76950455,-0.01279904,-0.01210659,-0.99984480
1326899529.81755161,-0.01299980,-0.01207459,-0.99984259
1326899529.86854267,-0.01315599,-0.01181495,-0.99984365
1326899529.91752148,-0.01300644,-0.01200678,-0.99984332
1326899529.96916080,-0.01315330,-0.01178953,-0.99984399
1326899530.01754951,-0.01320452,-0.01153242,-0.99984631
1326899530.06960988,-0.01317937,-0.01115985,-0.99985087
1326899530.12065196,-0.01318909,-0.01110594,-0.99985134
1326899530.16950893,-0.01286850,-0.01131079,-0.99985322
1326899530.21718550,-0.01308981,-0.01120278,-0.99985157
1326899530.26851606,-0.01318810,-0.01109958,-0.99985143
1326899530.31751871,-0.01344271,-0.01082475,-0.99985105
1326899530.36852074,-0.01343060,-0.01078485,-0.99985164
1326899530.41815710,-0.01329312,-0.01086348,-0.99985263
1326899530.47699833,-0.01341451,-0.01057249,-0.99985413
1326899530.51750803,-0.01348646,-0.01021841,-0.99985684
1326899530.56948733,-0.01338851,-0.01025747,-0.99985776
1326899530.61754465,-0.01347526,-0.01048835,-0.99985420
1326899530.66960168,-0.01302348,-0.01001799,-0.99986501
1326899530.71750617,-0.01326169,-0.00985098,-0.99986353
1326899530.76855898,-0.01328222,-0.00978216,-0.99986394
1326899530.82052994,-0.01319356,-0.00969187,-0.99986599
1326899530.86955094,-0.01335269,-0.00980424,-0.99986278
1326899530.92071986,-0.01320712,-0.00956214,-0.99986706
1326899530.96950197,-0.01311854,-0.00926119,-0.99987106
1326899531.02080846,-0.01332640,-0.00901072,-0.99987060
1326899531.06957769,-0.01360571,-0.00897703,-0.99986714
1326899531.11761832,-0.01384728,-0.00910576,-0.99986266
1326899531.16737962,-0.01328763,-0.00880155,-0.99987298
1326899531.22152734,-0.01332366,-0.00893695,-0.99987130
1326899531.26854849,-0.01368228,-0.00859508,-0.99986945
1326899531.31676316,-0.01384317,-0.00855765,-0.99986756
1326899531.36950207,-0.01405832,-0.00847195,-0.99986529
1326899531.41687799,-0.01370750,-0.00795888,-0.99987437
1326899531.46860623,-0.01361892,-0.00782095,-0.99987667
1326899531.51750731,-0.01377581,-0.00787299,-0.99987411
1326899531.56862926,-0.01390198,-0.00791083,-0.99987207
1326899531.61661577,-0.01418334,-0.00787792,-0.99986838
1326899531.66860461,-0.01389303,-0.00740148,-0.99987609
1326899531.71661997,-0.01385960,-0.00726982,-0.99987752
1326899531.76950407,-0.01399833,-0.00699750,-0.99987753
1326899531.81658936,-0.01414314,-0.00678112,-0.99987699
1326899531.86746693,-0.01433130,-0.00686599,-0.99987373
1326899531.91750360,-0.01445661,-0.00659440,-0.99987375
1326899531.96867228,-0.01454490,-0.00668784,-0.99987185
1326899532.01660514,-0.01466206,-0.00660641,-0.99987068
1326899532.06951237,-0.01465426,-0.00648539,-0.99987159
1326899532.11687708,-0.01463408,-0.00625618,-0.99987334
1326899532.16953564,-0.01439922,-0.00666255,-0.99987413
1326899532.21724343,-0.01476826,-0.00655621,-0.99986945
1326899532.26857281,-0.01490033,-0.00623027,-0.99986957
1326899532.31761765,-0.01498834,-0.00593347,-0.99987006
1326899532.36876583,-0.01492116,-0.00584778,-0.99987157
1326899532.41765809,-0.01438938,-0.00606987,-0.99987804
1326899532.46934533,-0.01456677,-0.00590322,-0.99987647
1326899532.51765347,-0.01472584,-0.00593151,-0.99987398
1326899532.56954098,-0.01493688,-0.00576100,-0.99987184
1326899532.61751056,-0.01513064,-0.00576605,-0.99986890
1326899532.66875029,-0.01489762,-0.00522292,-0.99987538
1326899532.71757245,-0.01492112,-0.00510590,-0.99987564
1326899532.76896262,-0.01497032,-0.00495172,-0.99987568
1326899532.81759906,-0.01528717,-0.00467018,-0.99987224
1326899532.87353516,-0.01562850,-0.00458411,-0.99986736
1326899532.92063642,-0.01516216,-0.00435794,-0.99987555
1326899532.96922278,-0.01518604,-0.00438770,-0.99987506
1326899533.02050352,-0.01526662,-0.00435054,-0.99987399
1326899533.06961155,-0.01561223,-0.00431619,-0.99986881
1326899533.11755729,-0.01549873,-0.00410844,-0.99987145
1326899533.16958642,-0.01530722,-0.00403356,-0.99987470
1326899533.21765518,-0.01526848,-0.00397736,-0.99987552
1326899533.26916862,-0.01546133,-0.00394100,-0.99987270
1326899533.32175851,-0.01558447,-0.00366046,-0.99987185
1326899533.36949825,-0.01538591,-0.00390405,-0.99987401
1326899533.42051172,-0.01503038,-0.00386584,-0.99987956
1326899533.46903443,-0.01517885,-0.00377768,-0.99987766
1326899533.51752377,-0.01514831,-0.00379080,-0.99987807
1326899533.56902885,-0.01502267,-0.00371829,-0.99988024
1326899533.62049794,-0.01504375,-0.00370078,-0.99987999
1326899533.66890287,-0.01475602,-0.00369562,-0.99988429
1326899533.71690607,-0.01504633,-0.00370896,-0.99987992
1326899533.76951528,-0.01504134,-0.00371903,-0.99987996
1326899533.81690097,-0.01509005,-0.00361671,-0.99987960
1326899533.87036443,-0.01490336,-0.00348810,-0.99988285
1326899533.91939592,-0.01467040,-0.00353648,-0.99988613
1326899533.96951556,-0.01464417,-0.00327471,-0.99988741
1326899534.02052402,-0.01457090,-0.00327135,-0.99988849
1326899534.07776618,-0.01472159,-0.00311092,-0.99988679
1326899534.11754036,-0.01456619,-0.00307058,-0.99988919
1326899534.16953325,-0.01417130,-0.00294216,-0.99989525
1326899534.22153211,-0.01409588,-0.00257017,-0.99989734
1326899534.26953459,-0.01413493,-0.00245748,-0.99989708
1326899534.31754851,-0.01430696,-0.00219583,-0.99989524
1326899534.36857343,-0.01434373,-0.00215881,-0.99989479
1326899534.41755247,-0.01384066,-0.00136904,-0.99990328
1326899534.46955442,-0.01378553,-0.00146875,-0.99990390
1326899534.51757717,-0.01389886,-0.00146966,-0.99990233
1326899534.56953621,-0.01376373,-0.00110672,-0.99990466
1326899534.61661267,-0.01365964,-0.00095730,-0.99990624
1326899534.66956115,-0.01313846,-0.00037036,-0.99991362
1326899534.71752429,-0.01341359,-0.00001997,-0.99991003
1326899534.76891875,-0.01338717,-0.00010196,-0.99991038
1326899534.81752276,-0.01342507,-0.00005633,-0.99990988
1326899534.86948872,-0.01342298,0.00003795,-0.99990991
1326899534.92053199,-0.01330262,0.00019052,-0.99991150
1326899534.96954370,-0.01363839,0.00021506,-0.99990697
1326899535.01652861,-0.01379029,0.00023745,-0.99990488
1326899535.06933904,-0.01389791,0.00034385,-0.99990336
1326899535.11753321,-0.01412927,0.00029892,-0.99990013
1326899535.16951370,-0.01353367,0.00065527,-0.99990820
1326899535.21735835,-0.01363465,0.00068591,-0.99990681
1326899535.26956415,-0.01348366,0.00056341,-0.99990893
1326899535.31665182,-0.01333509,0.00089447,-0.99991068
1326899535.36948872,-0.01350950,0.00097454,-0.99990827
1326899535.41654134,-0.01337796,0.00189750,-0.99990871
1326899535.46864533,-0.01332518,0.00192832,-0.99990936
1326899535.51752853,-0.01306818,0.00219456,-0.99991220
1326899535.56923175,-0.01309312,0.00237737,-0.99991146
1326899535.61662316,-0.01316404,0.00224371,-0.99991083
1326899535.66918421,-0.01284780,0.00209844,-0.99991526
1326899535.72057796,-0.01285510,0.00219792,-0.99991495
1326899535.77030039,-0.01302935,0.00231394,-0.99991244
1326899535.82152438,-0.01304458,0.00237812,-0.99991209
1326899535.86920428,-0.01324061,0.00257696,-0.99990902
1326899535.91751838,-0.01308296,0.00316956,-0.99990939
1326899535.96956897,-0.01306921,0.00334135,-0.99990901
1326899536.01763630,-0.01306366,0.00339114,-0.99990892
1326899536.06951571,-0.01314021,0.00342918,-0.99990778
1326899536.11861253,-0.01331937,0.00345364,-0.99990533
1326899536.16951227,-0.01297692,0.00433978,-0.99990638
1326899536.21760607,-0.01310000,0.00440808,-0.99990447
1326899536.26904631,-0.01316467,0.00470406,-0.99990228
1326899536.31826782,-0.01323288,0.00467174,-0.99990153
1326899536.36956739,-0.01295428,0.00471844,-0.99990496
1326899536.41704917,-0.01198167,0.00545910,-0.99991332
1326899536.46952558,-0.01213063,0.00560218,-0.99991073
1326899536.51705170,-0.01229214,0.00569334,-0.99990824
1326899536.56948590,-0.01227619,0.00576777,-0.99990801
1326899536.61717844,-0.01252784,0.00588453,-0.99990421
1326899536.67254686,-0.01210960,0.00623386,-0.99990724
1326899536.71765184,-0.01231986,0.00633585,-0.99990403
1326899536.76953483,-0.01230867,0.00630513,-0.99990437
1326899536.81766105,-0.01255496,0.00657925,-0.99989954
1326899536.86854076,-0.01258965,0.00661356,-0.99989888
1326899536.91690326,-0.01152405,0.00767187,-0.99990416
1326899536.96950364,-0.01160615,0.00809528,-0.99989988
1326899537.01688576,-0.01176530,0.00836105,-0.99989583
1326899537.06881452,-0.01183949,0.00847743,-0.99989397
1326899537.11772537,-0.01204214,0.00851071,-0.99989127
1326899537.16863656,-0.01162921,0.00892519,-0.99989255
1326899537.21764779,-0.01173366,0.00917026,-0.99988911
1326899537.26930976,-0.01185022,0.00929318,-0.99988660
1326899537.31668377,-0.01189641,0.00946167,-0.99988447
1326899537.36951566,-0.01190605,0.00971039,-0.99988197
1326899537.41752934,-0.01134746,0.00995145,-0.99988610
1326899537.46954870,-0.01148418,0.01012494,-0.99988279
1326899537.51751733,-0.01140754,0.01030500,-0.99988183
1326899537.56649780,-0.01149888,0.01023948,-0.99988146
1326899537.62056494,-0.01154167,0.01024393,-0.99988092
1326899537.67352104,-0.01101353,0.01078798,-0.99988115
1326899537.71753144,-0.01111482,0.01105850,-0.99987708
1326899537.77248240,-0.01116382,0.01097756,-0.99987742
1326899537.81654334,-0.01133783,0.01092879,-0.99987600
1326899537.86759853,-0.01153776,0.01103128,-0.99987259
1326899537.91752243,-0.01116540,0.01070487,-0.99988036
1326899537.96955705,-0.01113863,0.01091654,-0.99987837
1326899538.01668477,-0.01105959,0.01096617,-0.99987871
1326899538.06949258,-0.01098169,0.01112535,-0.99987781
1326899538.11664486,-0.01114500,0.01115398,-0.99987568
1326899538.16950440,-0.01057914,0.01147391,-0.99987821
1326899538.21734858,-0.01042298,0.01149718,-0.99987958
1326899538.27124071,-0.01027499,0.01152228,-0.99988082
1326899538.31750202,-0.01032021,0.01178307,-0.99987732
1326899538.36952376,-0.01021416,0.01193207,-0.99987664
1326899538.41721487,-0.00983911,0.01221270,-0.99987701
1326899538.46924257,-0.00977965,0.01214898,-0.99987837
1326899538.51721764,-0.00956812,0.01211687,-0.99988081
1326899538.56954932,-0.00961060,0.01233180,-0.99987777
1326899538.61755228,-0.00967961,0.01219915,-0.99987874
1326899538.66927910,-0.00946682,0.01232024,-0.99987929
1326899538.71763301,-0.00972770,0.01236910,-0.99987618
1326899538.76849890,-0.00976868,0.01231478,-0.99987645
1326899538.81706357,-0.00981275,0.01232188,-0.99987593
1326899538.86952162,-0.00982884,0.01235528,-0.99987536
1326899538.92149520,-0.00962352,0.01153932,-0.99988711
1326899538.96960378,-0.00964649,0.01150698,-0.99988726
1326899539.01707387,-0.00977051,0.01144132,-0.99988681
1326899539.06906486,-0.00990485,0.01164219,-0.99988317
1326899539.11749411,-0.00982751,0.01172930,-0.99988291
1326899539.16961193,-0.00969590,0.01145165,-0.99988742
1326899539.21698022,-0.00971037,0.01147258,-0.99988704
1326899539.26900506,-0.00971522,0.01161890,-0.99988530
1326899539.31693530,-0.00964059,0.01176970,-0.99988426
1326899539.36953163,-0.00950990,0.01168430,-0.99988651
1326899539.41765499,-0.00905749,0.01149489,-0.99989291
1326899539.46966481,-0.00904595,0.01162728,-0.99989148
1326899539.51753068,-0.00894393,0.01181042,-0.99989025
1326899539.56953454,-0.00890690,0.01213416,-0.99988671
1326899539.61764026,-0.00886983,0.01224389,-0.99988570
1326899539.66950822,-0.00878776,0.01203332,-0.99988898
1326899539.71764922,-0.00901754,0.01190034,-0.99988853
1326899539.76951766,-0.00915417,0.01178702,-0.99988863
1326899539.81766129,-0.00936312,0.01180450,-0.99988649
1326899539.86863256,-0.00954439,0.01169096,-0.99988611
1326899539.91752887,-0.00938641,0.01162920,-0.99988832
1326899539.96865582,-0.00931418,0.01154167,-0.99989001
1326899540.01692247,-0.00911318,0.01165185,-0.99989059
1326899540.06954980,-0.00914774,0.01187614,-0.99988763
1326899540.11693263,-0.00898284,0.01211229,-0.99988629
1326899540.16948557,-0.00874703,0.01158561,-0.99989463
1326899540.21666956,-0.00883904,0.01167044,-0.99989283
1326899540.27263665,-0.00895537,0.01189644,-0.99988913
1326899540.31751728,-0.00903701,0.01186592,-0.99988876
1326899540.36967015,-0.00914010,0.01190180,-0.99988740
1326899540.42091465,-0.00883751,0.01159059,-0.99989377
1326899540.46852112,-0.00873295,0.01193754,-0.99989061
1326899540.51755452,-0.00900459,0.01187683,-0.99988892
1326899540.56952572,-0.00904593,0.01176948,-0.99988982
1326899540.61652207,-0.00908630,0.01200716,-0.99988663
1326899540.67141247,-0.00883305,0.01113359,-0.99989901
1326899540.71753836,-0.00888067,0.01128399,-0.99989690
1326899540.76951885,-0.00874266,0.01143202,-0.99989643
1326899540.81662202,-0.00879084,0.01127054,-0.99989784
1326899540.86945224,-0.00884893,0.01133894,-0.99989656
1326899540.91751909,-0.00883345,0.01032031,-0.99990773
1326899540.96937823,-0.00887846,0.01036150,-0.99990690
1326899541.01655364,-0.00901202,0.01050104,-0.99990425
1326899541.06851959,-0.00893323,0.01064725,-0.99990341
1326899541.11759305,-0.00888893,0.01072763,-0.99990295
1326899541.16651630,-0.00856282,0.01057347,-0.99990744
1326899541.21656418,-0.00879328,0.01054163,-0.99990577
1326899541.26953340,-0.00879878,0.01081091,-0.99990285
1326899541.31739283,-0.00902950,0.01089925,-0.99989983
1326899541.36641240,-0.00920050,0.01106352,-0.99989647
1326899541.41751957,-0.00916540,0.01061054,-0.99990170
1326899541.46924663,-0.00905455,0.01076042,-0.99990111
1326899541.51770949,-0.00899749,0.01067213,-0.99990257
1326899541.56953216,-0.00925434,0.01068596,-0.99990008
1326899541.62056375,-0.00930580,0.01077194,-0.99989868
1326899541.68054676,-0.00913590,0.00986248,-0.99990963
1326899541.72062731,-0.00937889,0.01013576,-0.99990465
1326899541.76949048,-0.00952442,0.01052199,-0.99989928
1326899541.82058048,-0.00964050,0.01054203,-0.99989796
1326899541.86955500,-0.00950525,0.01055454,-0.99989912
1326899541.91751933,-0.00911680,0.01037485,-0.99990462
1326899541.96959257,-0.00906864,0.01060581,-0.99990263
1326899542.01723766,-0.00904838,0.01066519,-0.99990219
1326899542.06953335,-0.00927600,0.01094630,-0.99989706
1326899542.11765027,-0.00939100,0.01096364,-0.99989580
1326899542.16951561,-0.00839373,0.01079526,-0.99990650
1326899542.21766305,-0.00851134,0.01096300,-0.99990368
1326899542.26864552,-0.00848863,0.01125299,-0.99990065
1326899542.31751800,-0.00861030,0.01134365,-0.99989859
1326899542.36951637,-0.00883139,0.01145216,-0.99989542
1326899542.41709471,-0.00889732,0.01161428,-0.99989297
1326899542.46950936,-0.00867972,0.01173480,-0.99989347
1326899542.52063131,-0.00883032,0.01163924,-0.99989327
1326899542.56953287,-0.00884222,0.01192180,-0.99988984
1326899542.61763430,-0.00887402,0.01201438,-0.99988845
1326899542.66999078,-0.00874178,0.01228874,-0.99988628
1326899542.71753216,-0.00890288,0.01238031,-0.99988373
1326899542.76887393,-0.00898143,0.01261114,-0.99988014
1326899542.82060003,-0.00916930,0.01267025,-0.99987769
1326899542.86872482,-0.00914059,0.01276203,-0.99987678
1326899542.91766310,-0.00900868,0.01258336,-0.99988024
1326899542.96949053,-0.00900820,0.01254566,-0.99988072
1326899543.01766753,-0.00904927,0.01266270,-0.99987888
1326899543.06852031,-0.00920148,0.01273538,-0.99987656
1326899543.11751390,-0.00942406,0.01288980,-0.99987251
1326899543.16965151,-0.00899087,0.01242794,-0.99988235
1326899543.21682477,-0.00936899,0.01257823,-0.99987700
1326899543.26870704,-0.00920067,0.01285787,-0.99987500
1326899543.32165003,-0.00909444,0.01308753,-0.99987300
1326899543.36950421,-0.00911123,0.01312895,-0.99987230
1326899543.41655326,-0.00871020,0.01265771,-0.99988195
1326899543.46949887,-0.00855626,0.01265244,-0.99988335
1326899543.51770973,-0.00844565,0.01273773,-0.99988320
1326899543.56953478,-0.00842179,0.01283534,-0.99988216
1326899543.61651301,-0.00850152,0.01284411,-0.99988137
1326899543.66876864,-0.00846763,0.01288503,-0.99988113
1326899543.71648788,-0.00872673,0.01277916,-0.99988026
1326899543.76947618,-0.00867437,0.01301639,-0.99987766
1326899543.81649113,-0.00886422,0.01314994,-0.99987424
1326899543.86849761,-0.00900127,0.01323137,-0.99987195
1326899543.91752172,-0.00866755,0.01286418,-0.99987969
1326899543.96649146,-0.00865223,0.01281258,-0.99988048
1326899544.01928043,-0.00880298,0.01295284,-0.99987736
1326899544.07002640,-0.00892753,0.01312951,-0.99987395
1326899544.11663771,-0.00910181,0.01324259,-0.99987089
1326899544.16952801,-0.00871379,0.01290921,-0.99987870
1326899544.21739435,-0.00874610,0.01305288,-0.99987656
1326899544.26863480,-0.00895774,0.01314854,-0.99987343
1326899544.31752753,-0.00874899,0.01328878,-0.99987342
1326899544.36949825,-0.00876330,0.01337412,-0.99987216
1326899544.41755986,-0.00883408,0.01193405,-0.99988976
1326899544.46950364,-0.00910525,0.01202361,-0.99988626
1326899544.51726246,-0.00909446,0.01215766,-0.99988473
1326899544.56950235,-0.00897958,0.01229430,-0.99988410
1326899544.61766338,-0.00919276,0.01257021,-0.99987873
1326899544.66964197,-0.00952899,0.01055247,-0.99989892
1326899544.71752310,-0.00951034,0.01063492,-0.99989822
1326899544.76965141,-0.00951272,0.01065791,-0.99989795
1326899544.81755400,-0.00959113,0.01070839,-0.99989666
1326899544.86955118,-0.00957451,0.01089999,-0.99989475
1326899544.91726732,-0.00970830,0.00959592,-0.99990683
1326899544.96956491,-0.00967996,0.00954770,-0.99990757
1326899545.02063680,-0.00972880,0.00975507,-0.99990509
1326899545.06867361,-0.00954019,0.00996608,-0.99990483
1326899545.11751890,-0.00939032,0.01004876,-0.99990542
1326899545.16962123,-0.00937508,0.00870537,-0.99991816
1326899545.22056007,-0.00956369,0.00888429,-0.99991480
1326899545.26890492,-0.00962148,0.00919887,-0.99991140
1326899545.31766129,-0.00959134,0.00925717,-0.99991115
1326899545.36950612,-0.00967019,0.00934399,-0.99990958
1326899545.41755891,-0.01024425,0.00723265,-0.99992137
1326899545.46866560,-0.01030336,0.00724376,-0.99992068
1326899545.51758742,-0.01011224,0.00756242,-0.99992027
1326899545.56885934,-0.01015511,0.00762936,-0.99991933
1326899545.61698937,-0.01031701,0.00767970,-0.99991729
1326899545.66960835,-0.01028603,0.00685874,-0.99992357
1326899545.72166276,-0.01015362,0.00678861,-0.99992541
1326899545.76951528,-0.01022100,0.00696515,-0.99992351
1326899545.82164216,-0.01048181,0.00711985,-0.99991972
1326899545.86866760,-0.01044637,0.00725095,-0.99991915
1326899545.91826582,-0.01158697,0.00545574,-0.99991799
1326899545.96865702,-0.01143163,0.00576932,-0.99991801
1326899546.01766419,-0.01148720,0.00573634,-0.99991757
1326899546.07062459,-0.01123887,0.00611115,-0.99991817
1326899546.11751342,-0.01143071,0.00603068,-0.99991648
